Weather History for MDSD - October, 2012

Change the Weather History Date:

Thursday, October 4, 2012

  Actual Average Record
Temperature  
Mean Temperature 82 °F -  
Max Temperature 91 °F 88 °F 91 °F (2012)
Min Temperature 72 °F 72 °F 71 °F (1996)
Cooling Degree Days 16    
Growing Degree Days 32 (Base 50)    
Moisture  
Dew Point 72 °F    
Average Humidity 80    
Maximum Humidity 93    
Minimum Humidity 46    
Precipitation  
Precipitation 0.31 in 0.19 in - ()
Sea Level Pressure  
Sea Level Pressure 29.97 in    
Wind  
Wind Speed 6 mph ()    
Max Wind Speed 10 mph    
Max Gust Speed -    
Visibility 6.7 miles    
Events Rain    
Averages and records for this station are not official NWS values.
T = Trace of Precipitation, MM = Missing Value Source: Averaged Metar Reports

Daily Weather History Graph

Daily Weather History Graph

Search for Another Location

Airport or City:

Trip Planner

Search our weather history database for the weather conditions in past years. The results will help you decide how hot, cold, wet, or windy it might be!

Date:

Astronomy

Oct. 04, 2012 Rise Set
Actual Time 6:29 AM AST 6:24 PM AST
Civil Twilight 6:08 AM AST 6:46 PM AST
Nautical Twilight 5:42 AM AST 7:11 PM AST
Astronomical Twilight 5:17 AM AST 7:36 PM AST
Moon 9:34 PM AST (10/4) 10:07 AM AST (10/4)
Length of Visible Light 12h 38m
Length of Day
11h 54m
Waning Gibbous, 82% of the Moon is Illuminated
Oct 4
Waning Gibbous
Oct 8
Last Quarter
Oct 15
New
Oct 21
First Quarter
Oct 29
Full

Hourly Weather History & Observations

Time (AST) Temp. Heat Index Dew Point Humidity Pressure Visibility Wind Dir Wind Speed Gust Speed Precip Events Conditions
12:00 AM 75.2 °F - 71.6 °F 89% 30.04 in 6.2 mi NNE 5.8 mph - N/A   Scattered Clouds
1:00 AM 75.2 °F - 71.6 °F 89% 30.04 in 6.2 mi NNE 5.8 mph - N/A   Scattered Clouds
2:00 AM 74 °F - 71 °F 86% 30.02 in 10 mi North 6.7 mph - -   Partly Cloudy
2:00 AM 73.4 °F - 69.8 °F 88% 30.01 in 6.2 mi North 5.8 mph - N/A   Scattered Clouds
3:00 AM 73.4 °F - 69.8 °F 88% 30.01 in 6.2 mi North 4.6 mph - N/A   Partly Cloudy
4:00 AM 73.4 °F - 69.8 °F 88% 29.98 in 6.2 mi North 5.8 mph - N/A   Partly Cloudy
5:00 AM 72 °F - 70 °F 93% 29.99 in 10 mi North 6.7 mph - -   Scattered Clouds
5:00 AM 73.4 °F - 69.8 °F 88% 29.98 in 6.2 mi North 6.9 mph - N/A   Partly Cloudy
6:00 AM 73.4 °F - 69.8 °F 88% 29.98 in 6.2 mi North 6.9 mph - N/A   Partly Cloudy
7:00 AM 73.4 °F - 69.8 °F 88% 29.98 in 6.2 mi North 6.9 mph - N/A   Partly Cloudy
8:00 AM 74 °F - 71 °F 89% 30.03 in 10 mi North 8.9 mph - -   Scattered Clouds
8:00 AM 75.2 °F - 71.6 °F 89% 30.01 in 6.2 mi North 8.1 mph - N/A   Partly Cloudy
9:00 AM 80.6 °F 85.4 °F 73.4 °F 79% 30.04 in 6.2 mi NNE 6.9 mph - N/A   Partly Cloudy
10:00 AM 84.2 °F 92.3 °F 75.2 °F 74% 30.01 in 6.2 mi NNE 8.1 mph - N/A   Scattered Clouds
11:00 AM 87 °F - 72 °F 52% 30.03 in 10 mi ENE 8.9 mph - -   Partly Cloudy
11:00 AM 87.8 °F 93.8 °F 71.6 °F 58% 30.01 in 6.2 mi ENE 9.2 mph - N/A   Scattered Clouds
12:00 PM 87.8 °F 92.6 °F 69.8 °F 55% 30.01 in 6.2 mi East 6.9 mph - N/A   Scattered Clouds
1:00 PM 89.6 °F 93.4 °F 68.0 °F 49% 29.98 in 6.2 mi NE 9.2 mph - N/A   Scattered Clouds
2:00 PM 91.4 °F 95.4 °F 68.0 °F 46% 29.92 in 6.2 mi NE 5.8 mph - N/A   Mostly Cloudy
3:00 PM 89.6 °F 93.4 °F 68.0 °F 49% 29.92 in 6.2 mi South 6.9 mph - N/A   Mostly Cloudy
4:00 PM 86.0 °F 96.9 °F 77.0 °F 74% 29.89 in 3.7 mi SE 4.6 mph - N/A Rain Rain
4:05 PM - - - N/A% 29.92 in 2.5 mi East 10.4 mph - N/A Rain Heavy Rain
5:00 PM 79 °F - 76 °F 87% 29.91 in 10 mi Calm Calm - -   Partly Cloudy
5:00 PM 78.8 °F - 75.2 °F 89% 29.89 in 6.2 mi Calm Calm - N/A   Scattered Clouds
6:00 PM 80.6 °F 86.2 °F 75.2 °F 84% 29.92 in 6.2 mi Calm Calm - N/A   Scattered Clouds
7:00 PM 80.6 °F 87.1 °F 77.0 °F 89% 29.92 in 6.2 mi ENE 6.9 mph - N/A   Scattered Clouds
8:00 PM 80 °F - 76 °F 83% 29.94 in 10 mi NE 6.7 mph - -   Partly Cloudy
8:00 PM 78.8 °F - 75.2 °F 89% 29.92 in 6.2 mi NE 6.9 mph - N/A   Partly Cloudy
9:00 PM 77.0 °F - 73.4 °F 89% 29.95 in 6.2 mi NNE 6.9 mph - N/A   Partly Cloudy
10:00 PM 75.2 °F - 71.6 °F 89% 29.95 in 6.2 mi NNE 4.6 mph - N/A   Partly Cloudy
11:00 PM 75.2 °F - 71.6 °F 89% 29.95 in 6.2 mi NNE 4.6 mph - N/A   Partly Cloudy